Location: Clanezzo
(45.7500°N, 9.6000°E)
Time: 18:15:32
(UTC+00:00)

ISS - Visible Passes

Search period start: 19 January 2022 00:00
Search period end: 29 January 2022 00:00
Orbit: 413 x 422 km, 51.6° (Epoch: 19 January)

Date Brightness Start Highest point End Pass type
(mag) Time Alt. Az. Time Alt. Az. Time Alt. Az.
19 Jan -3.6 18:01:34 10° SW 18:04:41 60° SSE 18:04:41 60° SSE visible
20 Jan -3.0 17:13:52 10° SSW 17:16:58 38° SE 17:18:52 20° E visible
20 Jan -1.1 18:50:30 10° W 18:51:48 21° W 18:51:48 21° W visible
21 Jan -3.6 18:02:23 10° WSW 18:05:41 61° NNW 18:05:55 59° N visible
22 Jan -3.8 17:14:20 10° WSW 17:17:40 89° NNW 17:19:58 19° ENE visible
22 Jan -1.1 18:51:43 10° WNW 18:52:54 18° WNW 18:52:54 18° WNW visible
23 Jan -2.8 18:03:29 10° W 18:06:36 36° NNW 18:06:54 35° N visible
24 Jan -3.1 17:15:16 10° W 17:18:30 46° NNW 17:20:52 16° NE visible
24 Jan -1.0 18:52:49 10° WNW 18:53:48 16° NW 18:53:48 16° NW visible
25 Jan -2.5 18:04:37 10° WNW 18:07:36 29° N 18:07:45 29° N visible
26 Jan -2.6 17:16:23 10° WNW 17:19:25 31° N 17:21:40 15° NE visible
26 Jan -1.0 18:53:41 10° NW 18:54:36 16° NW 18:54:36 16° NW visible
27 Jan -2.5 18:05:34 10° WNW 18:08:32 29° N 18:08:32 29° N visible
28 Jan -2.5 17:17:23 10° WNW 17:20:20 28° N 17:22:28 15° NE visible
28 Jan -1.2 18:54:20 10° WNW 18:55:24 18° NW 18:55:24 18° NW visible
